Overview Statistics Trail Chart Weather Telemetry Raw packets
 

This is the latest recevied weather packets stored in our database for station/object WA6OOO. If no packets are shown the sender has not sent any weather packets the latest 10 day(s).

<< 76 77 78 79 80 81 82 >>
Time Temp. Humidity Pressure Rain* Wind** Luminosity Snow
1788124431 27.78° C 58% 1015.8 hPa 0 mm - 683 W/m² -
1788124127 27.22° C 58% 1015.8 hPa 0 mm - 748 W/m² -
1788123825 27.22° C 58% 1015.9 hPa 0 mm - 748 W/m² -
1788123523 27.22° C 58% 1016 hPa 0 mm - 748 W/m² -
1788123222 27.22° C 58% 1016.1 hPa 0 mm - 748 W/m² -
1788122918 27.22° C 58% 1015.9 hPa 0 mm - 748 W/m² -
1788122617 27.78° C 58% 1016.1 hPa 0 mm - 713 W/m² -
1788122312 27.78° C 58% 1015.9 hPa 0 mm - 713 W/m² -
1788122009 27.78° C 58% 1016.1 hPa 0 mm - 713 W/m² -
1788121707 27.78° C 58% 1016 hPa 0 mm - 713 W/m² -
1788121403 27.22° C 59% 1016.1 hPa 0 mm - 863 W/m² -
1788121098 27.22° C 59% 1016.1 hPa 0 mm - 912 W/m² -
1788120792 26.67° C 60% 1016.2 hPa 0 mm - 854 W/m² -
1788120488 26.11° C 63% 1016.1 hPa 0 mm - 723 W/m² -
1788120187 26.67° C 62% 1016.2 hPa 0 mm - 661 W/m² -
1788119883 26.11° C 65% 1016.3 hPa 0 mm - 746 W/m² -
1788119583 26.11° C 65% 1016.3 hPa 0 mm - 746 W/m² -
1788119280 25.56° C 65% 1016.2 hPa 0 mm - 673 W/m² -
1788118975 25.56° C 66% 1016.2 hPa 0 mm - 515 W/m² -
1788118670 25.56° C 67% 1016.2 hPa 0 mm - 799 W/m² -
1788118369 25.56° C 67% 1016.1 hPa 0 mm - 581 W/m² -
1788118066 25° C 69% 1016.2 hPa 0 mm - 761 W/m² -
1788117760 25.56° C 68% 1016.3 hPa 0 mm - 113 W/m² -
1788117457 25.56° C 69% 1016.2 hPa 0 mm - 669 W/m² -
1788117156 25.56° C 68% 1016.4 hPa 0 mm - 733 W/m² -

* Rain latest hour (hover to see other rain measurements)
** Current wind speed in m/s (hover to see current wind gust speed)